Time,TemperatureF,DewpointF,PressureIn,WindDirection,WindDirectionDegrees,WindSpeedMPH,WindSpeedGustMPH,Humidity,HourlyPrecipIn,Conditions,Clouds,dailyrainin,SoftwareType,DateUTC
2013-01-07 00:02:00,31.3,23.0,29.94,South,180,7.8,-999.0,71,-99.99,,,0.00,Acu-Link.com,2013-01-07 06:02:00,
2013-01-07 00:17:00,30.9,23.0,29.94,SSE,157,8.3,-999.0,72,-99.99,,,0.00,Acu-Link.com,2013-01-07 06:17:00,
2013-01-07 00:32:00,30.7,22.8,29.93,SSE,157,9.4,-999.0,72,-99.99,,,0.00,Acu-Link.com,2013-01-07 06:32:00,
2013-01-07 00:48:00,31.1,23.1,29.93,South,180,8.3,-999.0,72,-99.99,,,0.00,Acu-Link.com,2013-01-07 06:48:00,
2013-01-07 01:03:00,30.4,22.8,29.93,SSW,202,5.3,-999.0,73,-99.99,,,0.00,Acu-Link.com,2013-01-07 07:03:00,
2013-01-07 01:18:00,29.8,22.2,29.93,SSW,202,5.3,-999.0,73,-99.99,,,0.00,Acu-Link.com,2013-01-07 07:18:00,
2013-01-07 01:34:00,29.3,22.1,29.91,SSW,202,5.3,-999.0,74,-99.99,,,0.00,Acu-Link.com,2013-01-07 07:34:00,
2013-01-07 01:49:00,28.8,21.6,29.91,SSW,202,5.8,-999.0,74,-99.99,,,0.00,Acu-Link.com,2013-01-07 07:49:00,
2013-01-07 02:04:00,28.6,21.7,29.91,South,180,5.3,-999.0,75,-99.99,,,0.00,Acu-Link.com,2013-01-07 08:04:00,
2013-01-07 02:19:00,27.7,21.1,29.92,West,270,2.2,-999.0,76,-99.99,,,0.00,Acu-Link.com,2013-01-07 08:19:00,
2013-01-07 02:35:00,27.1,20.9,29.91,West,270,2.7,-999.0,77,-99.99,,,0.00,Acu-Link.com,2013-01-07 08:35:00,
2013-01-07 02:50:00,27.1,20.9,29.90,SW,225,3.7,-999.0,77,-99.99,,,0.00,Acu-Link.com,2013-01-07 08:50:00,
2013-01-07 03:08:00,27.3,21.1,29.91,SSW,202,7.3,-999.0,77,-99.99,,,0.00,Acu-Link.com,2013-01-07 09:08:00,
2013-01-07 03:23:00,28.2,21.6,29.88,South,180,8.3,-999.0,76,-99.99,,,0.00,Acu-Link.com,2013-01-07 09:23:00,
2013-01-07 03:38:00,28.8,21.6,29.87,SSW,202,6.8,-999.0,74,-99.99,,,0.00,Acu-Link.com,2013-01-07 09:38:00,
2013-01-07 03:54:00,28.8,21.6,29.87,South,180,8.9,-999.0,74,-99.99,,,0.00,Acu-Link.com,2013-01-07 09:54:00,
2013-01-07 04:09:00,28.8,21.9,29.87,South,180,9.4,-999.0,75,-99.99,,,0.00,Acu-Link.com,2013-01-07 10:09:00,
2013-01-07 04:24:00,28.8,21.9,29.88,WSW,247,5.3,-999.0,75,-99.99,,,0.00,Acu-Link.com,2013-01-07 10:24:00,
2013-01-07 04:39:00,28.2,21.3,29.90,West,270,3.2,-999.0,75,-99.99,,,0.00,Acu-Link.com,2013-01-07 10:39:00,
2013-01-07 04:55:00,27.7,21.4,29.89,WSW,247,6.8,-999.0,77,-99.99,,,0.00,Acu-Link.com,2013-01-07 10:55:00,
2013-01-07 05:10:00,27.7,21.4,29.88,South,180,5.3,-999.0,77,-99.99,,,0.00,Acu-Link.com,2013-01-07 11:10:00,
2013-01-07 05:25:00,27.7,21.4,29.86,SW,225,3.7,-999.0,77,-99.99,,,0.00,Acu-Link.com,2013-01-07 11:25:00,
2013-01-07 05:40:00,26.8,20.9,29.86,West,270,2.7,-999.0,78,-99.99,,,0.00,Acu-Link.com,2013-01-07 11:40:00,
2013-01-07 05:56:00,26.1,20.5,29.86,SSW,202,2.7,-999.0,79,-99.99,,,0.00,Acu-Link.com,2013-01-07 11:56:00,
2013-01-07 06:11:00,25.9,20.3,29.85,SSE,157,5.3,-999.0,79,-99.99,,,0.00,Acu-Link.com,2013-01-07 12:11:00,
2013-01-07 06:26:00,25.5,20.2,29.85,West,270,4.2,-999.0,80,-99.99,,,0.00,Acu-Link.com,2013-01-07 12:26:00,
2013-01-07 06:41:00,25.5,20.2,29.86,South,180,4.7,-999.0,80,-99.99,,,0.00,Acu-Link.com,2013-01-07 12:41:00,
2013-01-07 06:57:00,25.2,20.2,29.87,SW,225,3.7,-999.0,81,-99.99,,,0.00,Acu-Link.com,2013-01-07 12:57:00,
2013-01-07 07:12:00,25.0,20.0,29.86,WSW,247,2.7,-999.0,81,-99.99,,,0.00,Acu-Link.com,2013-01-07 13:12:00,
2013-01-07 07:27:00,25.0,20.0,29.87,West,270,2.2,-999.0,81,-99.99,,,0.00,Acu-Link.com,2013-01-07 13:27:00,
2013-01-07 07:43:00,24.8,20.1,29.86,SW,225,2.7,-999.0,82,-99.99,,,0.00,Acu-Link.com,2013-01-07 13:43:00,
2013-01-07 07:58:00,24.6,19.9,29.87,SW,225,2.7,-999.0,82,-99.99,,,0.00,Acu-Link.com,2013-01-07 13:58:00,
2013-01-07 08:13:00,24.4,19.7,29.87,West,270,3.7,-999.0,82,-99.99,,,0.00,Acu-Link.com,2013-01-07 14:13:00,
2013-01-07 08:29:00,24.4,19.7,29.87,SSW,202,4.2,-999.0,82,-99.99,,,0.00,Acu-Link.com,2013-01-07 14:29:00,
2013-01-07 08:44:00,24.4,19.7,29.88,WSW,247,1.7,-999.0,82,-99.99,,,0.00,Acu-Link.com,2013-01-07 14:44:00,
2013-01-07 08:59:00,24.8,19.8,29.89,SSW,202,2.2,-999.0,81,-99.99,,,0.00,Acu-Link.com,2013-01-07 14:59:00,
2013-01-07 09:14:00,26.1,20.2,29.89,West,270,2.2,-999.0,78,-99.99,,,0.00,Acu-Link.com,2013-01-07 15:14:00,
2013-01-07 09:30:00,26.1,20.2,29.90,SW,225,2.7,-999.0,78,-99.99,,,0.00,Acu-Link.com,2013-01-07 15:30:00,
2013-01-07 09:45:00,26.2,20.0,29.90,SSW,202,2.2,-999.0,77,-99.99,,,0.00,Acu-Link.com,2013-01-07 15:45:00,
2013-01-07 10:00:00,27.0,20.5,29.90,WSW,247,3.2,-999.0,76,-99.99,,,0.00,Acu-Link.com,2013-01-07 16:00:00,
2013-01-07 10:15:00,27.3,20.4,29.92,West,270,2.7,-999.0,75,-99.99,,,0.00,Acu-Link.com,2013-01-07 16:15:00,
2013-01-07 10:31:00,27.1,20.2,29.92,West,270,3.7,-999.0,75,-99.99,,,0.00,Acu-Link.com,2013-01-07 16:31:00,
2013-01-07 10:46:00,27.1,20.2,29.92,West,270,4.2,-999.0,75,-99.99,,,0.00,Acu-Link.com,2013-01-07 16:46:00,
2013-01-07 11:01:00,28.0,20.5,29.92,West,270,2.2,-999.0,73,-99.99,,,0.00,Acu-Link.com,2013-01-07 17:01:00,
2013-01-07 11:17:00,30.0,21.4,29.92,West,270,3.2,-999.0,70,-99.99,,,0.00,Acu-Link.com,2013-01-07 17:17:00,
2013-01-07 11:32:00,31.8,22.5,29.92,West,270,3.7,-999.0,68,-99.99,,,0.00,Acu-Link.com,2013-01-07 17:32:00,
2013-01-07 11:47:00,33.3,23.2,29.91,West,270,3.2,-999.0,66,-99.99,,,0.00,Acu-Link.com,2013-01-07 17:47:00,
2013-01-07 12:03:00,34.0,23.5,29.90,NW,315,4.2,-999.0,65,-99.99,,,0.00,Acu-Link.com,2013-01-07 18:03:00,
2013-01-07 12:18:00,35.2,24.3,29.89,West,270,2.2,-999.0,64,-99.99,,,0.00,Acu-Link.com,2013-01-07 18:18:00,
2013-01-07 12:33:00,35.8,24.1,29.89,SSW,202,0.0,-999.0,62,-99.99,,,0.00,Acu-Link.com,2013-01-07 18:33:00,
2013-01-07 12:48:00,37.4,24.8,29.88,WNW,292,3.2,-999.0,60,-99.99,,,0.00,Acu-Link.com,2013-01-07 18:48:00,
2013-01-07 13:04:00,37.0,24.8,29.88,NNE,22,2.7,-999.0,61,-99.99,,,0.00,Acu-Link.com,2013-01-07 19:04:00,
2013-01-07 13:19:00,37.2,25.4,29.88,ESE,112,2.2,-999.0,62,-99.99,,,0.00,Acu-Link.com,2013-01-07 19:19:00,
2013-01-07 13:34:00,38.3,25.6,29.89,NW,315,3.7,-999.0,60,-99.99,,,0.00,Acu-Link.com,2013-01-07 19:34:00,
2013-01-07 13:50:00,38.8,25.7,29.88,West,270,3.2,-999.0,59,-99.99,,,0.00,Acu-Link.com,2013-01-07 19:50:00,
2013-01-07 14:05:00,38.7,25.6,29.88,WSW,247,0.0,-999.0,59,-99.99,,,0.00,Acu-Link.com,2013-01-07 20:05:00,
2013-01-07 14:36:00,39.7,26.2,29.88,ENE,67,1.7,-999.0,58,-99.99,,,0.00,Acu-Link.com,2013-01-07 20:36:00,
2013-01-07 14:51:00,39.9,25.9,29.87,NE,45,3.2,-999.0,57,-99.99,,,0.00,Acu-Link.com,2013-01-07 20:51:00,
2013-01-07 15:06:00,39.9,25.9,29.87,NNE,22,3.2,-999.0,57,-99.99,,,0.00,Acu-Link.com,2013-01-07 21:06:00,
2013-01-07 15:22:00,39.2,26.1,29.87,NNE,22,2.2,-999.0,59,-99.99,,,0.00,Acu-Link.com,2013-01-07 21:22:00,
2013-01-07 15:37:00,38.7,26.4,29.87,NE,45,1.1,-999.0,61,-99.99,,,0.00,Acu-Link.com,2013-01-07 21:37:00,
2013-01-07 15:52:00,37.9,25.7,29.87,ESE,112,0.0,-999.0,61,-99.99,,,0.00,Acu-Link.com,2013-01-07 21:52:00,
2013-01-07 16:08:00,37.2,25.8,29.86,East,90,0.0,-999.0,63,-99.99,,,0.00,Acu-Link.com,2013-01-07 22:08:00,
2013-01-07 16:23:00,36.3,25.7,29.85,ENE,67,0.0,-999.0,65,-99.99,,,0.00,Acu-Link.com,2013-01-07 22:23:00,
2013-01-07 16:38:00,37.6,26.2,29.85,SE,135,0.0,-999.0,63,-99.99,,,0.00,Acu-Link.com,2013-01-07 22:38:00,
2013-01-07 16:54:00,36.0,25.0,29.85,North,0,0.0,-999.0,64,-99.99,,,0.00,Acu-Link.com,2013-01-07 22:54:00,
2013-01-07 17:09:00,33.8,24.4,29.86,NNW,337,0.0,-999.0,68,-99.99,,,0.00,Acu-Link.com,2013-01-07 23:09:00,
2013-01-07 17:24:00,31.5,23.5,29.86,SSW,202,0.0,-999.0,72,-99.99,,,0.00,Acu-Link.com,2013-01-07 23:24:00,
2013-01-07 17:39:00,29.5,22.9,29.86,SE,135,0.0,-999.0,76,-99.99,,,0.00,Acu-Link.com,2013-01-07 23:39:00,
2013-01-07 17:54:00,27.1,22.6,29.86,SSE,157,0.0,-999.0,83,-99.99,,,0.00,Acu-Link.com,2013-01-07 23:54:00,
2013-01-07 18:10:00,25.9,22.6,29.86,South,180,0.0,-999.0,87,-99.99,,,0.00,Acu-Link.com,2013-01-08 00:10:00,
2013-01-07 18:25:00,24.4,20.3,29.86,WSW,247,0.0,-999.0,84,-99.99,,,0.00,Acu-Link.com,2013-01-08 00:25:00,
2013-01-07 18:40:00,23.4,19.8,29.87,SSW,202,0.0,-999.0,86,-99.99,,,0.00,Acu-Link.com,2013-01-08 00:40:00,
2013-01-07 18:56:00,23.0,20.0,29.87,South,180,0.0,-999.0,88,-99.99,,,0.00,Acu-Link.com,2013-01-08 00:56:00,
2013-01-07 19:11:00,22.8,21.1,29.87,NW,315,0.0,-999.0,93,-99.99,,,0.00,Acu-Link.com,2013-01-08 01:11:00,
2013-01-07 19:26:00,21.9,19.9,29.86,South,180,0.0,-999.0,92,-99.99,,,0.00,Acu-Link.com,2013-01-08 01:26:00,
2013-01-07 19:42:00,21.4,19.4,29.87,SW,225,0.0,-999.0,92,-99.99,,,0.00,Acu-Link.com,2013-01-08 01:42:00,
2013-01-07 19:57:00,20.7,18.5,29.87,WSW,247,0.0,-999.0,91,-99.99,,,0.00,Acu-Link.com,2013-01-08 01:57:00,
2013-01-07 20:12:00,20.5,18.8,29.87,West,270,0.0,-999.0,93,-99.99,,,0.00,Acu-Link.com,2013-01-08 02:12:00,
2013-01-07 20:27:00,19.8,18.4,29.86,WNW,292,0.0,-999.0,94,-99.99,,,0.00,Acu-Link.com,2013-01-08 02:27:00,
2013-01-07 20:43:00,19.6,18.2,29.86,West,270,0.0,-999.0,94,-99.99,,,0.00,Acu-Link.com,2013-01-08 02:43:00,
2013-01-07 20:58:00,18.9,17.5,29.86,West,270,0.0,-999.0,94,-99.99,,,0.00,Acu-Link.com,2013-01-08 02:58:00,
2013-01-07 21:13:00,18.5,17.1,29.85,West,270,0.0,-999.0,94,-99.99,,,0.00,Acu-Link.com,2013-01-08 03:13:00,
2013-01-07 21:29:00,17.6,16.2,29.84,West,270,0.0,-999.0,94,-99.99,,,0.00,Acu-Link.com,2013-01-08 03:29:00,
2013-01-07 21:44:00,16.9,15.2,29.84,WSW,247,0.0,-999.0,93,-99.99,,,0.00,Acu-Link.com,2013-01-08 03:44:00,
2013-01-07 22:00:00,16.5,14.8,29.83,West,270,0.0,-999.0,93,-99.99,,,0.00,Acu-Link.com,2013-01-08 04:00:00,
2013-01-07 22:15:00,16.0,14.3,29.84,West,270,0.0,-999.0,93,-99.99,,,0.00,Acu-Link.com,2013-01-08 04:15:00,
2013-01-07 22:30:00,15.6,13.7,29.84,West,270,0.0,-999.0,92,-99.99,,,0.00,Acu-Link.com,2013-01-08 04:30:00,
2013-01-07 22:45:00,15.4,13.3,29.83,SW,225,0.0,-999.0,91,-99.99,,,0.00,Acu-Link.com,2013-01-08 04:45:00,
2013-01-07 23:01:00,16.2,14.5,29.83,South,180,0.0,-999.0,93,-99.99,,,0.00,Acu-Link.com,2013-01-08 05:01:00,
2013-01-07 23:16:00,15.6,14.2,29.83,South,180,0.0,-999.0,94,-99.99,,,0.00,Acu-Link.com,2013-01-08 05:16:00,
2013-01-07 23:31:00,14.9,13.2,29.83,South,180,0.0,-999.0,93,-99.99,,,0.00,Acu-Link.com,2013-01-08 05:31:00,
2013-01-07 23:46:00,15.1,13.2,29.83,WSW,247,0.0,-999.0,92,-99.99,,,0.00,Acu-Link.com,2013-01-08 05:46:00,